User: anonymous   Login
Location: Unspecified
(0.0000°N, 0.0000°E)
Time: 07:21:51
(UTC+00:00)
Language:

Akebono - Orbit

View from above orbital plane
View from above orbital plane
View from above satellite
View from above satellite

Ground track
Ground track

The orbit data is extracted from the following two-line orbital elements,

1 19822U 89016A   18347.63966713  .00012534 -11077-6  23428-3 0  9990
2 19822  75.0328  14.3316 1815832  81.4055 298.7490 11.89306855973451
Epoch (UTC): 13 December 2018 15:21:07
Eccentricity: 0.1815832
inclination: 75.0328°
perigee height: 257 km
apogee height: 3201 km
right ascension of ascending node: 14.3316°
argument of perigee: 81.4055°
revolutions per day: 11.89306855
mean anomaly at epoch: 298.7490°
orbit number at epoch: 97345

The dashed part of the orbit path shows where the satellite is in the earth's shadow,  

DLR